When you browse on this site, cookies collect data to enhance your experience and personalize the content and advertising you see.
Visit our Privacy Policy to learn more. By continuing to use the site, you agree to this use of cookies and data.
  • In Romania
  • List of Countries
  • For 7 days
  • Water Temperature
  • Weather Map
  • Weather Widgets
  • user-avatar
    Login

    Hourly Weather San Luis

    Today, 22 November, Friday

    Time Temperature Precipitation Wind Pressure Humidity
    00:00 +23°C° 0.3 mm 6 mps 697 mmHg 72%
    01:00 +23°C° 0.3 mm 5 mps 697 mmHg 71%
    02:00 +22°C° 0 mm 4 mps 698 mmHg 73%
    03:00 +22°C° 0.1 mm 4 mps 698 mmHg 74%
    04:00 +22°C° 0.1 mm 4 mps 698 mmHg 75%
    05:00 +22°C° 0.1 mm 5 mps 699 mmHg 76%
    06:00 +22°C° 0 mm 5 mps 699 mmHg 76%
    07:00 +22°C° 0 mm 6 mps 700 mmHg 76%
    08:00 +22°C° 0 mm 7 mps 701 mmHg 75%
    09:00 +24°C° 0 mm 7 mps 701 mmHg 68%
    10:00 +27°C° 0 mm 7 mps 701 mmHg 61%
    11:00 +28°C° 0 mm 7 mps 701 mmHg 53%
    12:00 +29°C° 0.1 mm 7 mps 701 mmHg 53%
    13:00 +29°C° 0.1 mm 7 mps 701 mmHg 52%
    14:00 +29°C° 0.1 mm 7 mps 700 mmHg 51%
    15:00 +29°C° 0.2 mm 7 mps 700 mmHg 53%
    16:00 +28°C° 0.2 mm 7 mps 699 mmHg 54%
    17:00 +28°C° 0.2 mm 8 mps 699 mmHg 55%
    18:00 +27°C° 0.2 mm 8 mps 699 mmHg 59%
    19:00 +26°C° 0.2 mm 8 mps 699 mmHg 63%
    20:00 +24°C° 0.2 mm 8 mps 699 mmHg 67%
    21:00 +23°C° 1.1 mm 7 mps 699 mmHg 72%
    22:00 +22°C° 1.1 mm 7 mps 699 mmHg 76%
    23:00 +22°C° 1.1 mm 6 mps 699 mmHg 80%

    Tomorrow, 23 November, Saturday

    Time Temperature Precipitation Wind Pressure Humidity
    00:00 +22°C° 1.3 mm 5 mps 699 mmHg 81%
    01:00 +21°C° 1.3 mm 4 mps 699 mmHg 82%
    02:00 +21°C° 1.3 mm 4 mps 698 mmHg 84%
    03:00 +21°C° 1.3 mm 4 mps 698 mmHg 84%
    04:00 +21°C° 1.3 mm 4 mps 698 mmHg 85%
    05:00 +21°C° 1.3 mm 4 mps 698 mmHg 85%
    06:00 +21°C° 1.1 mm 4 mps 699 mmHg 83%
    07:00 +22°C° 1.1 mm 4 mps 699 mmHg 81%
    08:00 +23°C° 1.1 mm 4 mps 699 mmHg 79%
    09:00 +23°C° 0.7 mm 5 mps 699 mmHg 74%
    10:00 +24°C° 0.7 mm 6 mps 699 mmHg 70%
    11:00 +26°C° 0.7 mm 7 mps 699 mmHg 66%
    12:00 +27°C° 0.2 mm 7 mps 698 mmHg 60%
    13:00 +29°C° 0.2 mm 8 mps 698 mmHg 55%
    14:00 +31°C° 0.2 mm 8 mps 697 mmHg 49%
    15:00 +31°C° 0.3 mm 8 mps 697 mmHg 47%
    16:00 +31°C° 0.3 mm 8 mps 696 mmHg 45%
    17:00 +32°C° 0.3 mm 8 mps 696 mmHg 43%
    18:00 +29°C° 0 mm 7 mps 696 mmHg 49%
    19:00 +27°C° 0 mm 6 mps 696 mmHg 54%
    20:00 +26°C° 0 mm 5 mps 696 mmHg 59%
    21:00 +24°C° 0 mm 6 mps 696 mmHg 60%
    22:00 +24°C° 0 mm 6 mps 696 mmHg 61%
    23:00 +23°C° 0 mm 6 mps 695 mmHg 62%

    Day after tomorrow, 24 November, Sunday

    Time Temperature Precipitation Wind Pressure Humidity
    00:00 +23°C° 0 mm 6 mps 695 mmHg 62%
    01:00 +23°C° 0 mm 6 mps 694 mmHg 61%
    02:00 +23°C° 0 mm 6 mps 693 mmHg 61%
    03:00 +23°C° 0 mm 6 mps 693 mmHg 62%
    04:00 +22°C° 0 mm 6 mps 693 mmHg 63%
    05:00 +22°C° 0 mm 7 mps 693 mmHg 63%
    06:00 +23°C° 0 mm 8 mps 693 mmHg 60%
    07:00 +24°C° 0 mm 9 mps 693 mmHg 57%
    08:00 +27°C° 0 mm 10 mps 693 mmHg 54%
    09:00 +28°C° 0 mm 10 mps 693 mmHg 51%
    10:00 +29°C° 0 mm 10 mps 693 mmHg 49%
    11:00 +31°C° 0 mm 9 mps 693 mmHg 46%
    12:00 +31°C° 0 mm 9 mps 692 mmHg 46%
    13:00 +32°C° 0 mm 9 mps 692 mmHg 46%
    14:00 +32°C° 0 mm 8 mps 691 mmHg 45%
    15:00 +30°C° 0.3 mm 7 mps 691 mmHg 50%
    16:00 +29°C° 0.3 mm 6 mps 690 mmHg 55%
    17:00 +28°C° 0.3 mm 5 mps 690 mmHg 60%
    18:00 +26°C° 2.5 mm 4 mps 690 mmHg 68%
    19:00 +25°C° 2.5 mm 4 mps 690 mmHg 76%
    20:00 +22°C° 2.5 mm 3 mps 691 mmHg 84%
    21:00 +21°C° 4.3 mm 5 mps 691 mmHg 83%
    22:00 +20°C° 4.3 mm 7 mps 691 mmHg 82%
    23:00 +18°C° 4.3 mm 9 mps 692 mmHg 81%

    25 November, Monday

    Time Temperature Precipitation Wind Pressure Humidity
    00:00 +18°C° 0.5 mm 8 mps 692 mmHg 81%
    01:00 +18°C° 0.5 mm 7 mps 692 mmHg 80%
    02:00 +19°C° 0.5 mm 6 mps 692 mmHg 80%
    03:00 +17°C° 0 mm 6 mps 692 mmHg 80%
    04:00 +17°C° 0 mm 5 mps 692 mmHg 81%
    05:00 +16°C° 0 mm 5 mps 693 mmHg 81%
    06:00 +17°C° 0 mm 5 mps 693 mmHg 78%
    07:00 +19°C° 0 mm 6 mps 694 mmHg 74%
    08:00 +20°C° 0 mm 6 mps 694 mmHg 70%
    09:00 +21°C° 0 mm 6 mps 695 mmHg 65%
    10:00 +22°C° 0 mm 7 mps 695 mmHg 60%
    11:00 +23°C° 0 mm 7 mps 696 mmHg 55%
    12:00 +23°C° 0 mm 7 mps 695 mmHg 53%
    13:00 +24°C° 0 mm 7 mps 695 mmHg 52%
    14:00 +24°C° 0 mm 7 mps 694 mmHg 50%
    15:00 +24°C° 0 mm 7 mps 694 mmHg 50%
    16:00 +24°C° 0 mm 7 mps 693 mmHg 50%
    17:00 +24°C° 0 mm 7 mps 693 mmHg 50%
    18:00 +23°C° 0 mm 7 mps 693 mmHg 56%
    19:00 +22°C° 0 mm 7 mps 693 mmHg 62%
    20:00 +20°C° 0 mm 6 mps 694 mmHg 67%
    21:00 +20°C° 0.1 mm 6 mps 694 mmHg 72%
    22:00 +19°C° 0.1 mm 6 mps 694 mmHg 76%
    23:00 +19°C° 0.1 mm 6 mps 695 mmHg 80%

    26 November, Tuesday

    Time Temperature Precipitation Wind Pressure Humidity
    00:00 +17°C° 0.2 mm 7 mps 695 mmHg 81%
    01:00 +16°C° 0.2 mm 8 mps 695 mmHg 81%
    02:00 +15°C° 0.2 mm 9 mps 695 mmHg 82%
    03:00 +13°C° 0.2 mm 9 mps 695 mmHg 80%
    04:00 +13°C° 0.2 mm 9 mps 696 mmHg 78%
    05:00 +12°C° 0.2 mm 9 mps 696 mmHg 77%
    06:00 +13°C° 0.1 mm 8 mps 697 mmHg 72%
    07:00 +13°C° 0.1 mm 8 mps 698 mmHg 67%
    08:00 +14°C° 0.1 mm 7 mps 699 mmHg 62%
    09:00 +12°C° 0 mm 8 mps 699 mmHg 60%
    10:00 +12°C° 0 mm 8 mps 699 mmHg 57%
    11:00 +12°C° 0 mm 8 mps 699 mmHg 55%
    12:00 +13°C° 0 mm 8 mps 699 mmHg 52%
    13:00 +16°C° 0 mm 8 mps 698 mmHg 49%
    14:00 +18°C° 0 mm 7 mps 698 mmHg 46%
    15:00 +18°C° 0 mm 7 mps 698 mmHg 47%
    16:00 +18°C° 0 mm 7 mps 697 mmHg 48%
    17:00 +19°C° 0 mm 6 mps 697 mmHg 48%
    18:00 +17°C° 0 mm 6 mps 697 mmHg 54%
    19:00 +15°C° 0 mm 5 mps 697 mmHg 60%
    20:00 +14°C° 0 mm 5 mps 697 mmHg 66%
    21:00 +14°C° 0 mm 4 mps 697 mmHg 66%
    22:00 +13°C° 0 mm 3 mps 697 mmHg 67%
    23:00 +14°C° 0 mm 2 mps 698 mmHg 68%

    27 November, Wednesday

    Time Temperature Precipitation Wind Pressure Humidity
    00:00 +14°C° 0 mm 2 mps 697 mmHg 68%
    01:00 +14°C° 0 mm 2 mps 697 mmHg 67%
    02:00 +14°C° 0 mm 2 mps 696 mmHg 67%
    03:00 +14°C° 0 mm 2 mps 697 mmHg 69%
    04:00 +13°C° 0 mm 1 mps 697 mmHg 71%
    05:00 +13°C° 0 mm 1 mps 697 mmHg 73%
    06:00 +15°C° 0 mm 1 mps 698 mmHg 63%
    07:00 +19°C° 0 mm 1 mps 699 mmHg 54%
    08:00 +21°C° 0 mm 1 mps 699 mmHg 45%
    09:00 +21°C° 0 mm 2 mps 699 mmHg 40%
    10:00 +24°C° 0 mm 2 mps 700 mmHg 36%
    11:00 +25°C° 0 mm 3 mps 700 mmHg 32%
    12:00 +25°C° 0 mm 4 mps 699 mmHg 33%
    13:00 +25°C° 0 mm 4 mps 699 mmHg 34%
    14:00 +25°C° 0 mm 5 mps 698 mmHg 35%
    15:00 +25°C° 0 mm 5 mps 698 mmHg 35%
    16:00 +25°C° 0 mm 5 mps 698 mmHg 35%
    17:00 +26°C° 0 mm 6 mps 697 mmHg 35%
    18:00 +23°C° 0 mm 6 mps 698 mmHg 39%
    19:00 +21°C° 0 mm 6 mps 698 mmHg 43%
    20:00 +20°C° 0 mm 6 mps 698 mmHg 47%
    21:00 +19°C° 0 mm 6 mps 698 mmHg 48%
    22:00 +19°C° 0 mm 5 mps 698 mmHg 50%
    23:00 +17°C° 0 mm 5 mps 699 mmHg 51%
    Show more